Вернуться в каталог

STARLINK-36614

АктивенСвязьVLEO
NORAD 67622·PAYLOAD·🇺🇸 United States

Запущен Jan 30, 2026 с Cape Canaveral Space Force Station

Loading…

Ближайшие Пролёты (ближайшие 24 часа)

TLE

СвежийSource: CelesTrak SupGP

Эпоха: Sep 15, 2026, 03:39 UTC

1 67622C 26020F   26258.15256944  .00059500  00000+0  21552-2 0  2585
2 67622  42.9995 149.8790 0001536 275.8150 260.5737 15.27546385    11

Отслеживайте STARLINK-36614 в реальном времени с AllMySat

Download on the App Store